#timestamp,LO_Frequency,Hit,StdDev 
1593061215.5,286047000.7,N
1593061235.4,286047000.4,N
1593061255.2,286046998.7,N
1593061275.0,286047000.3,N
1593061275.9,286047000.3,N
1593061295.8,286046998.1,N
1593061315.6,286046999.7,N
1593061335.4,286047003.3,N
1593061355.3,286047005.8,Y
1593061375.1,286047004.1,P
1593061395.9,286047006.6,P
1593061415.7,286047008.1,P
1593061435.5,286047006.1,N
1593061455.4,286047008.7,Y
1593061475.2,286047005.7,P
1593061495.0,286047007.0,P
1593061495.9,286047007.0,P
1593061515.8,286047006.5,Y
1593061535.6,286047000.1,P
1593061555.5,286047000.3,N
1593061575.3,286047000.1,N
1593061595.1,286046999.8,N
1593061615.9,286047005.2,N
1593061635.7,286047005.0,N
1593061655.5,286047003.5,N
1593061675.4,286047003.3,N
1593061695.2,286047005.9,N
1593061715.1,286047005.4,N
1593061716.0,286047005.4,N
1593061735.8,286047004.4,N
1593061755.6,286047005.2,N
1593061775.5,286047003.3,N
1593061795.3,286047004.1,N
1593061815.2,286047003.1,N
1593061835.9,286047005.5,N
1593061855.7,286047006.3,N
1593061875.6,286047007.0,Y
1593061895.4,286047003.8,P
1593061915.2,286047001.3,P
1593061935.1,286047001.7,N
1593061936.0,286047001.7,N
1593061955.8,286047003.2,N
1593061975.7,286047004.7,Y
1593061995.5,286047001.6,P
1593062015.3,286047002.9,P
1593062035.2,286047006.3,P
1593062055.0,286047009.1,Y
1593062055.9,286047009.1,P
1593062075.8,286047003.3,N
1593062095.6,286047004.7,N
1593062115.4,286047005.0,N
1593062135.3,286047003.2,N
1593062155.1,286047004.3,N
1593062175.8,286046999.9,N
1593062195.7,286047002.7,N
1593062215.5,286047004.3,N
1593062235.4,286047005.1,N
1593062255.2,286047003.7,N
1593062275.0,286047005.0,N
1593062275.9,286047005.0,N
1593062295.8,286047007.3,Y
1593062315.6,286047004.2,P
1593062335.4,286047002.4,P
1593062355.3,286047002.2,N
1593062375.1,286047000.7,N
1593062395.9,286047000.8,N
1593062415.7,286047000.8,N
1593062435.5,286046996.2,N
1593062455.4,286046995.2,N
1593062475.2,286046998.7,N
1593062495.0,286046996.2,N
1593062495.9,286046996.2,N
1593062515.8,286046995.3,N
1593062535.6,286046994.9,N
1593062555.5,286046999.1,N
1593062575.3,286047000.6,N
1593062595.1,286046998.5,N
1593062615.9,286046998.9,N
1593062635.7,286046998.1,N
1593062655.5,286046999.3,N
1593062675.4,286046998.7,N
1593062695.2,286046995.3,N
1593062715.1,286046995.9,N
1593062716.0,286046995.9,N
1593062735.8,286046993.5,N
1593062755.6,286046997.5,N
1593062775.5,286046992.4,N
1593062795.3,286046992.6,N
1593062815.1,286046994.9,N
1593062835.9,286046995.2,N
1593062855.7,286046998.1,N
1593062875.6,286046996.9,N
1593062895.4,286046994.9,N
1593062915.2,286046997.5,N
1593062935.1,286046994.2,N
1593062936.0,286046994.2,N
1593062955.8,286046992.1,Y
1593062975.7,286046995.8,P
1593062995.5,286046997.0,P
1593063015.3,286046999.6,N
1593063035.2,286047000.8,N
1593063055.9,286046999.8,N
1593063075.7,286047001.5,N
1593063095.6,286046999.5,N
1593063115.4,286046996.1,N
1593063135.2,286046997.4,N
1593063155.1,286046993.7,Y
1593063156.0,286046993.7,P
1593063175.8,286046991.7,P
1593063195.7,286046994.8,N
1593063215.5,286046992.2,Y
1593063235.3,286046999.0,P
1593063255.2,286046997.6,N
1593063275.0,286046996.3,N
1593063275.9,286046996.3,N
1593063295.8,286046994.1,Y
1593063315.6,286046997.7,P
1593063335.4,286046993.6,P
1593063355.3,286046991.5,P
1593063375.1,286046987.8,Y
1593063395.9,286046988.8,P
1593063415.7,286046989.5,P
1593063435.5,286046984.3,P
1593063455.4,286046980.7,Y
1593063475.2,286046989.0,P
1593063495.0,286046983.7,P
1593063495.9,286046983.7,P
1593063515.8,286046979.3,Y
1593063535.6,286046994.0,P
1593063555.5,286046992.7,N
1593063575.3,286046992.5,N
1593063595.1,286046996.3,N
1593063615.9,286047001.2,N
1593063635.7,286047002.4,N
1593063655.5,286047005.2,N
1593063675.4,286047003.1,N
1593063695.2,286047007.6,N
1593063715.1,286047009.4,N
1593063716.0,286047009.4,N
1593063735.8,286047012.5,N
1593063755.6,286047015.5,N
1593063775.5,286047013.5,N
1593063795.3,286047009.4,N
1593063815.1,286047008.2,N
1593063835.9,286047008.4,N
1593063855.7,286047007.3,N
1593063875.6,286047003.4,N
1593063895.4,286047003.7,N
1593063915.2,286047004.8,N
1593063935.1,286047007.2,N
1593063936.0,286047007.2,N
1593063955.8,286047007.0,N
1593063975.7,286047009.1,N
1593063995.5,286047006.3,N
1593064015.3,286047006.4,N
1593064035.2,286047005.6,N
1593064055.0,286046998.8,N
1593064055.9,286046998.8,N
1593064075.7,286046995.9,N
1593064095.6,286046992.6,N
1593064115.4,286046989.6,N
1593064135.3,286046988.1,N
1593064155.1,286046986.4,N
1593064156.0,286046986.4,N
1593064175.8,286046983.2,N
1593064195.7,286046981.5,N
1593064215.5,286046977.9,N
1593064235.3,286046973.5,N
1593064255.2,286046971.8,N
1593064275.0,286046970.2,N
1593064275.9,286046970.2,N
1593064295.8,286046968.6,N
1593064315.6,286046970.4,N
1593064335.4,286046974.0,N
1593064355.3,286046971.3,N
1593064375.1,286046972.4,N
1593064395.8,286046970.4,N
1593064415.7,286046971.8,N
1593064435.5,286046973.7,N
1593064455.4,286046971.3,N
1593064475.2,286046973.4,N
1593064495.0,286046972.7,N
1593064495.9,286046972.7,N
1593064515.8,286046974.0,N
1593064535.6,286046971.1,N
1593064555.4,286046969.7,N
1593064575.3,286046971.7,Y
1593064595.1,286046994.4,P
1593064615.9,286046990.2,N
1593064635.7,286046987.7,N
1593064655.5,286046989.5,N
1593064675.4,286046988.7,N
1593064695.2,286046991.4,N
1593064715.0,286046987.1,N
1593064715.9,286046987.1,N
1593064735.8,286046988.4,N
1593064755.6,286046987.4,Y
1593064775.5,286047000.0,P
1593064795.3,286047001.0,N
